Location: Cobbelsdorf
(51.9608°N, 12.5300°E)
Time: 20:20:35
(UTC+00:00)

Daily predictions for brighter satellites

Satellite Brightness Start Highest point End
(mag) Time Altitude Azimuth Time Altitude Azimuth Time Altitude Azimuth
Cosmos 1844 Rocket 2.7 15:29:35 10° NNW 15:35:13 86° ENE 15:40:48 10° SSE
Cosmos 1328 Rocket 4.2 15:31:08 10° SSW 15:35:25 58° WNW 15:39:43 10° N
CZ-4 R/B 3.3 15:36:16 10° ENE 15:36:30 10° NE 15:36:44 10° NE
ATLAS 3B R/B 2.7 15:30:48 10° NW 15:37:32 86° NE 15:44:24 10° SE
NOSS 3-4 (A) 4.2 15:32:14 10° S 15:37:40 36° ESE 15:43:24 10° NE
NOSS 3-4 (C) 4.2 15:32:21 10° S 15:37:47 36° ESE 15:43:30 10° NE
USA 267 3.9 15:33:00 10° SE 15:39:30 64° SW 15:46:01 10° WNW
Cosmos 2228 Rocket 3.2 15:35:53 10° S 15:40:26 70° E 15:45:01 10° NNE
Cosmos 2279 Rocket 4.3 15:34:47 10° N 15:40:50 47° ENE 15:46:51 10° SE
Cosmos 1602 4.0 15:37:37 10° N 15:41:23 47° ENE 15:45:09 10° SSE
Okean-O 3.6 15:40:37 10° ESE 15:44:13 25° ENE 15:47:49 10° N
Cosmos 1634 Rocket 4.0 15:38:10 10° N 15:44:22 74° ENE 15:50:33 10° SSE
Cosmos 1689 Rocket 2.2 15:42:00 10° NNE 15:45:02 59° ESE 15:48:02 10° S
Cosmos 1500 4.5 15:44:55 10° NNE 15:47:44 20° ENE 15:50:32 10° ESE
NOSS 8 (H) 4.2 15:45:02 10° SW 15:48:08 88° SE 15:51:22 10° NE
BREEZE-M R/B 4.1 15:42:04 10° WSW 15:49:04 49° SSE 15:52:39 10° E
Cosmos 1943 Rocket 4.0 15:47:13 10° N 15:49:53 13° NNE 15:52:33 10° NE
NOSS 2-2 (C) 3.3 15:46:40 10° SW 15:50:21 90° WNW 15:54:44 10° NE
COSMOS 2455 3.0 15:44:50 10° SW 15:50:52 80° NW 15:56:57 10° NE
Cosmos 1340 2.7 15:47:50 10° N 15:51:36 60° ENE 15:55:20 10° SSE
Helios 1A Rocket 3.2 15:47:53 10° S 15:52:01 77° WSW 15:56:08 10° NNW
COSMOS 2428 3.7 15:47:51 10° SSE 15:52:29 27° ESE 15:57:11 10° NE
CZ-4B R/B 2.0 15:49:26 10° N 15:52:56 63° WNW 15:56:25 10° SSW
ISS -3.7 15:49:56 10° W 15:53:18 81° S 15:56:40 10° E
H-2A R/B 3.2 15:51:15 10° SE 15:54:40 36° ENE 15:58:05 10° N
BREEZE-M DEB (TANK) 4.1 15:49:32 10° WSW 15:56:00 35° S 15:59:03 10° ESE
SL-4 R/B 3.7 15:55:37 10° S 15:58:18 19° SE 16:01:07 10° E
Cosmos 1515 Rocket 4.4 15:56:19 10° SSW 16:00:33 51° WNW 16:04:49 10° N
Cosmos 1269 Rocket 4.3 15:56:17 10° S 16:01:23 50° ESE 16:06:31 10° NNE
Cosmos 1707 Rocket 4.1 15:57:52 10° SSE 16:02:00 39° E 16:06:10 10° NNE
Cosmos 494 Rocket 4.1 15:56:59 10° S 16:02:09 60° ESE 16:07:21 10° NNE
Cosmos 44 Rocket 4.4 16:00:53 10° NW 16:05:25 47° WSW 16:09:55 10° SSE
Cosmos 1782 2.8 16:04:11 10° S 16:08:09 70° E 16:12:09 10° NNE
Cosmos 1315 Rocket 2.9 16:07:54 10° S 16:11:47 55° E 16:15:45 10° NNE
Cosmos 2333 4.5 16:06:45 10° S 16:12:15 52° ESE 16:17:47 10° NE
STARLINK-67 3.9 16:09:55 10° SSW 16:12:24 29° SSE 16:14:07 16° E
NOSS 2-2 (E) 3.9 16:09:21 10° WSW 16:13:05 55° NW 16:17:11 12° NE
Cosmos 1346 Rocket 2.8 16:09:51 10° NNW 16:13:49 85° WSW 16:17:48 10° S
YAOGAN 6 3.7 16:11:49 10° ESE 16:14:35 22° ENE 16:17:22 10° NNE
CZ-4B R/B 4.1 16:09:45 10° S 16:14:55 51° W 16:20:12 10° NNW
ATLAS 2AS CENTAUR R/B 3.1 16:07:09 10° SW 16:15:09 79° SE 16:22:41 12° NE
IRS-1C Rocket 4.1 16:10:43 10° SSE 16:16:00 82° ENE 16:21:19 10° NNW
Meteor 2-6 Rocket 4.3 16:11:09 10° SSE 16:16:18 49° E 16:21:31 10° NNE
Cosmos 1048 Rocket 4.4 16:11:57 10° SW 16:17:18 67° WNW 16:22:43 10° NNE
Cosmos 2322 3.8 16:12:10 10° SSW 16:17:48 64° ESE 16:23:22 10° NE
COSMO-SKYMED 1 4.0 16:16:40 16° ENE 16:18:10 18° E 16:21:10 10° SE
Cosmos 1302 Rocket 4.0 16:14:43 10° NNW 16:20:03 89° WSW 16:25:19 10° SSE
Meteor 1-10 Rocket 4.4 16:18:31 10° SSE 16:23:51 50° E 16:29:14 10° NNE
Cosmos 1400 Rocket 3.9 16:19:58 10° SSW 16:23:57 47° WNW 16:27:55 10° N
Cosmos 2278 Rocket 2.2 16:20:15 10° NNW 16:25:52 60° NE 16:31:28 10° SE
Cosmos 1606 4.4 16:22:56 10° SW 16:26:22 32° WNW 16:29:50 10° N
SMAP 3.1 16:26:16 10° SSE 16:30:56 85° WSW 16:35:38 10° NNW
YAOGAN 1 3.4 16:28:27 10° ESE 16:32:05 27° ENE 16:35:44 10° N
Cosmos 1666 3.7 16:29:37 10° NNE 16:32:45 24° ENE 16:35:51 10° SE
Meteor 1-11 Rocket 3.8 16:29:08 10° N 16:35:07 67° ENE 16:41:03 10° SSE
SeaSat 1 3.6 16:34:21 20° ENE 16:35:49 23° NE 16:39:37 10° NNW
Cosmos 2360 Rocket 2.6 16:30:57 10° SW 16:36:35 65° NW 16:42:12 10° NNE
RESURS DK-1 3.0 16:37:07 10° S 16:40:55 37° ESE 16:42:29 26° ENE
Cosmos 2369 Rocket 3.7 16:37:26 10° NNW 16:41:07 17° NNE 16:42:03 17° NE
Cosmos 304 Rocket 4.3 16:36:46 10° NNW 16:41:32 63° WSW 16:46:17 10° S
Cosmos 2333 Rocket 2.3 16:38:10 10° SSW 16:43:49 62° ESE 16:48:13 17° NE
Cosmos 1980 Rocket 4.2 16:40:02 10° WNW 16:43:57 18° NNW 16:47:53 10° NNE
Cosmos 1733 Rocket 2.9 16:40:34 10° N 16:44:58 83° E 16:49:21 10° SSE
Meteor 1-27 Rocket 4.0 16:40:13 10° SSE 16:45:41 48° E 16:51:17 10° NNE
USA 215 3.3 16:41:19 19° ENE 16:46:11 77° NNW 16:52:43 10° WSW
Cosmos 1867 4.5 16:43:20 10° NW 16:48:10 30° NNE 16:50:03 25° ENE
Cosmos 292 Rocket 4.1 16:46:41 10° NNW 16:51:21 43° ENE 16:55:02 15° SE
Envisat 2.9 16:48:09 10° SSE 16:53:14 82° ENE 16:58:21 10° NNW
Cosmos 2237 Rocket 2.9 16:51:12 10° SSE 16:56:13 33° ESE 16:57:53 28° ENE
Cosmos 1812 2.6 16:56:39 10° S 17:00:29 66° E 17:02:32 26° NNE
Cosmos 2322 Rocket 3.7 16:55:54 10° WSW 17:00:50 30° NW 17:05:47 10° NNE
Exosat Rocket 3.6 16:56:22 10° S 17:01:32 53° ESE 17:03:51 29° NE
SL-16 R/B 3.9 17:01:32 10° W 17:06:17 27° NW 17:11:01 10° NNE
SKYMED 2 3.8 17:05:22 36° NE 17:06:42 48° E 17:10:54 10° S
Cosmos 1992 Rocket 3.9 17:01:52 10° NNW 17:07:08 90° SW 17:12:22 10° SSE
Cosmos 1536 2.7 17:03:49 10° N 17:07:54 82° E 17:11:55 10° SSE
Cosmos 1092 Rocket 4.1 17:02:49 10° SSE 17:08:53 51° E 17:14:55 10° NNE
CZ-4 R/B 1.1 17:06:55 10° SSE 17:10:48 69° ENE 17:14:41 10° N
Cosmos 2219 Rocket 2.2 17:09:13 10° SSW 17:14:50 85° WNW 17:18:26 24° NNE
Cosmos 2242 Rocket 3.6 17:10:57 10° S 17:15:26 60° E 17:17:13 34° NNE
NOSS 3-1 (C) 4.5 17:10:14 10° NW 17:16:31 38° NNE 17:19:09 30° ENE
NOSS 0 Rocket 4.0 17:12:21 10° SSW 17:18:25 58° ESE 17:21:06 33° NE
Okean-O 3.6 17:16:09 10° S 17:20:27 50° W 17:24:47 10° NNW
USA 229 DEB 4.4 17:16:32 10° NW 17:23:03 39° NNE 17:25:12 32° NE
USA 229 4.4 17:16:38 10° NW 17:23:09 39° NNE 17:25:17 32° NE
Cosmos 1862 Rocket 3.6 17:19:05 10° SSW 17:23:26 77° WNW 17:26:30 20° N
Cosmos 1500 4.4 17:19:58 10° NNW 17:23:34 42° W 17:27:07 10° SSW
Cosmos 2297 3.7 17:19:19 10° NNW 17:24:59 57° NE 17:26:43 41° ESE
Cosmos 921 Rocket 4.0 17:21:09 10° NNW 17:23:41 31° NNE 17:23:41 31° NNE
Cosmos 1703 Rocket 4.5 17:21:31 10° SSE 17:24:19 33° SE 17:24:19 33° SE
Cosmos 1980 3.7 17:20:35 10° S 17:26:05 56° ESE 17:27:28 44° ENE
BREEZE-M DEB (TANK) 3.5 17:22:13 10° W 17:26:34 29° SW 17:27:30 24° S
Lacrosse 5 rocket 2.0 17:23:11 10° SSW 17:26:52 41° SSE 17:26:52 41° SSE
NOSS 3-4 (A) 3.7 17:22:10 10° WSW 17:28:13 65° NW 17:31:33 30° NE
NOSS 3-4 (C) 3.7 17:22:15 10° WSW 17:28:20 65° NW 17:31:39 30° NE
ISS -2.4 17:26:44 10° W 17:29:49 34° SSW 17:30:13 33° SSW
Cosmos 1943 Rocket 3.1 17:30:29 10° NNW 17:34:38 30° NNE 17:34:38 30° NNE
COSMOS 2428 3.0 17:30:42 10° SW 17:36:20 65° NW 17:39:28 27° NNE
Ariane Rocket 3.5 17:37:35 41° NNE 17:37:35 41° NNE 17:41:15 10° N
SL-4 R/B 2.2 17:33:31 10° WSW 17:36:58 56° S 17:36:58 56° S
COSMOS 2455 4.3 17:32:35 10° W 17:37:43 28° NNW 17:40:50 19° NNE
CSL-04 Rocket 3.6 17:34:30 10° SSE 17:39:47 83° WSW 17:45:08 10° NNW
YAOGAN 6 4.1 17:44:38 10° SSW 17:47:55 36° W 17:51:15 10° NNW
Cosmos 1553 Rocket 3.9 17:44:05 10° N 17:50:23 64° ENE 17:52:39 40° SE
Nadezhda 4 Rocket 4.5 17:44:22 10° SSW 17:50:38 61° WNW 17:56:55 10° N
CSL-04 Debris 4.4 17:45:20 10° S 17:50:47 69° WSW 17:56:14 10° NNW
COSMO-SKYMED 1 3.0 17:53:53 50° NNW 17:54:44 62° WNW 17:59:01 10° SSW
Cosmos 1908 Rocket 4.4 17:50:41 10° NNW 17:54:59 50° W 17:59:12 10° SSW
Cosmos 1428 Rocket 4.3 17:51:37 10° S 17:57:43 71° E 17:59:07 54° NE
IRS-1A Rocket 4.2 18:00:47 72° E 18:01:00 73° ENE 18:06:55 10° NNW
Cosmos 2344 4.3 17:57:11 10° NW 18:05:50 58° NNE 18:08:48 46° ENE
ATLAS 2AS CENTAUR R/B 3.7 17:59:06 10° W 18:06:51 47° NNW 18:10:07 32° NNE
Cosmos 2251 Rocket 4.0 18:02:33 10° SW 18:07:47 57° WNW 18:09:04 45° N
YAOGAN 1 3.7 18:03:55 10° S 18:08:02 42° W 18:12:10 10° NNW
Cosmos 1666 4.4 18:05:01 10° NNW 18:08:24 32° W 18:11:45 10° SSW
NOAA 11 4.5 18:03:45 10° S 18:09:10 65° WSW 18:14:39 10° NNW
Cosmos 2278 Rocket 4.0 18:04:49 10° NW 18:09:38 29° WSW 18:14:27 10° SSW
BREEZE-M R/B 4.5 18:07:29 10° W 18:10:05 30° WSW 18:10:05 30° WSW
SeaSat 1 3.0 18:14:08 50° NNW 18:14:08 50° NNW 18:17:46 10° NNW
Cosmos 2026 Rocket 3.9 18:07:22 10° SSW 18:13:27 83° W 18:15:46 41° N
H-2A R/B 4.4 18:18:14 12° N 18:18:14 12° N 18:18:34 10° N
Cosmos 489 Rocket 4.4 18:09:11 10° NNW 18:15:08 73° NNE 18:15:08 73° NNE
RESURS DK-1 4.0 18:15:13 10° WSW 18:18:24 32° WNW 18:18:24 32° WNW
Cosmos 1417 Rocket 4.3 18:14:49 10° N 18:20:59 87° W 18:21:09 84° SSW
Cosmos 2360 Rocket 4.2 18:17:36 10° WNW 18:21:44 20° NNW 18:23:59 16° N
SL-16 R/B 3.9 18:20:49 10° SSW 18:22:46 22° S 18:22:46 22° S
Cosmos 2369 Rocket 3.5 18:20:58 10° NNW 18:23:52 29° N 18:23:52 29° N
Cosmos 2333 Rocket 3.6 18:23:18 10° WSW 18:28:29 33° NW 18:30:14 28° N
USA 215 3.4 18:28:41 58° N 18:28:55 58° N 18:35:19 10° WNW
Cosmos 1867 4.4 18:26:56 10° NW 18:30:44 46° NW 18:30:44 46° NW
Cosmos 2237 Rocket 2.8 18:34:30 10° SW 18:39:45 53° WNW 18:39:45 53° WNW
CZ-4 R/B 4.4 18:44:18 10° WSW 18:46:18 14° W 18:48:18 10° WNW
Cosmos 2219 Rocket 4.0 18:55:08 10° W 18:59:38 24° NW 19:00:10 24° NNW
Lacrosse 5 rocket 4.5 19:02:14 10° W 19:02:32 12° W 19:02:32 12° W
NOSS 3-1 (C) 4.4 19:01:16 10° NW 19:06:34 54° NNW 19:06:34 54° NNW
USA 229 DEB 4.5 19:07:46 10° NW 19:12:40 48° NW 19:12:40 48° NW
USA 229 4.5 19:07:52 10° NW 19:12:44 48° NW 19:12:44 48° NW
Cosmos 1943 Rocket 4.2 19:14:07 10° NW 19:16:11 23° NW 19:16:11 23° NW
ATLAS 2AS CENTAUR R/B 4.4 19:52:26 10° WNW 19:57:33 31° NNW 19:57:33 31° NNW
